Year,Month,Day,Hour,Minute,Value (Times are PST for temperature in C)
2010,09,30,00,00,8.60
2010,09,30,00,01,8.60
2010,09,30,00,02,8.60
2010,09,30,00,03,8.60
2010,09,30,00,04,8.60
2010,09,30,00,05,8.60
2010,09,30,00,06,8.60
2010,09,30,00,07,8.60
2010,09,30,00,08,8.50
2010,09,30,00,09,8.50
2010,09,30,00,10,8.50
2010,09,30,00,11,8.40
2010,09,30,00,12,8.40
2010,09,30,00,13,8.40
2010,09,30,00,14,8.30
2010,09,30,00,15,8.30
2010,09,30,00,16,8.30
2010,09,30,00,17,8.30
2010,09,30,00,18,8.30
2010,09,30,00,19,8.30
2010,09,30,00,20,8.30
2010,09,30,00,21,8.30
2010,09,30,00,22,8.20
2010,09,30,00,23,8.20
2010,09,30,00,24,8.20
2010,09,30,00,25,8.20
2010,09,30,00,26,8.20
2010,09,30,00,27,8.20
2010,09,30,00,28,8.20
2010,09,30,00,29,8.20
2010,09,30,00,30,8.20
2010,09,30,00,31,8.20
2010,09,30,00,32,8.30
2010,09,30,00,33,8.30
2010,09,30,00,34,8.30
2010,09,30,00,35,8.30
2010,09,30,00,36,8.40
2010,09,30,00,37,8.40
2010,09,30,00,38,8.40
2010,09,30,00,39,8.30
2010,09,30,00,40,8.30
2010,09,30,00,41,8.30
2010,09,30,00,42,8.30
2010,09,30,00,43,8.30
2010,09,30,00,44,8.30
2010,09,30,00,45,8.30
2010,09,30,00,46,8.30
2010,09,30,00,47,8.30
2010,09,30,00,48,8.30
2010,09,30,00,49,8.30
2010,09,30,00,50,8.30
2010,09,30,00,51,8.30
2010,09,30,00,52,8.20
2010,09,30,00,53,8.20
2010,09,30,00,54,8.10
2010,09,30,00,55,8.10
2010,09,30,00,56,8.00
2010,09,30,00,57,8.00
2010,09,30,00,58,7.90
2010,09,30,00,59,7.90
2010,09,30,01,00,7.90
2010,09,30,01,01,7.90
2010,09,30,01,02,7.80
2010,09,30,01,03,7.80
2010,09,30,01,04,7.80
2010,09,30,01,05,7.80
2010,09,30,01,06,7.80
2010,09,30,01,07,7.80
2010,09,30,01,08,7.90
2010,09,30,01,09,7.90
2010,09,30,01,10,7.90
2010,09,30,01,11,7.90
2010,09,30,01,12,8.00
2010,09,30,01,13,8.00
2010,09,30,01,14,8.00
2010,09,30,01,15,8.00
2010,09,30,01,16,8.00
2010,09,30,01,17,7.90
2010,09,30,01,18,7.90
2010,09,30,01,19,7.80
2010,09,30,01,20,7.80
2010,09,30,01,21,7.80
2010,09,30,01,22,7.70
2010,09,30,01,23,7.70
2010,09,30,01,24,7.70
2010,09,30,01,25,7.70
2010,09,30,01,26,7.70
2010,09,30,01,27,7.60
2010,09,30,01,28,7.60
2010,09,30,01,29,7.60
2010,09,30,01,30,7.60
2010,09,30,01,31,7.60
2010,09,30,01,32,7.60
2010,09,30,01,33,7.60
2010,09,30,01,34,7.60
2010,09,30,01,35,7.60
2010,09,30,01,36,7.60
2010,09,30,01,37,7.60
2010,09,30,01,38,7.60
2010,09,30,01,39,7.60
2010,09,30,01,40,7.60
2010,09,30,01,41,7.60
2010,09,30,01,42,7.60
2010,09,30,01,43,7.60
2010,09,30,01,44,7.60
2010,09,30,01,45,7.60
2010,09,30,01,46,7.60
2010,09,30,01,47,7.60
2010,09,30,01,48,7.60
2010,09,30,01,49,7.50
2010,09,30,01,50,7.50
2010,09,30,01,51,7.50
2010,09,30,01,52,7.50
2010,09,30,01,53,7.60
2010,09,30,01,54,7.60
2010,09,30,01,55,7.60
2010,09,30,01,56,7.60
2010,09,30,01,57,7.60
2010,09,30,01,58,7.60
2010,09,30,01,59,7.60
2010,09,30,02,00,7.60
2010,09,30,02,01,7.60
2010,09,30,02,02,7.60
2010,09,30,02,03,7.60
2010,09,30,02,04,7.60
2010,09,30,02,05,7.50
2010,09,30,02,06,7.50
2010,09,30,02,07,7.50
2010,09,30,02,08,7.50
2010,09,30,02,09,7.50
2010,09,30,02,10,7.60
2010,09,30,02,11,7.60
2010,09,30,02,12,7.60
2010,09,30,02,13,7.60
2010,09,30,02,14,7.50
2010,09,30,02,15,7.50
2010,09,30,02,16,7.40
2010,09,30,02,17,7.30
2010,09,30,02,18,7.30
2010,09,30,02,19,7.30
2010,09,30,02,20,7.30
2010,09,30,02,21,7.30
2010,09,30,02,22,7.30
2010,09,30,02,23,7.30
2010,09,30,02,24,7.30
2010,09,30,02,25,7.30
2010,09,30,02,26,7.30
2010,09,30,02,27,7.30
2010,09,30,02,28,7.20
2010,09,30,02,29,7.20
2010,09,30,02,30,7.20
2010,09,30,02,31,7.20
2010,09,30,02,32,7.20
2010,09,30,02,33,7.20
2010,09,30,02,34,7.20
2010,09,30,02,35,7.20
2010,09,30,02,36,7.20
2010,09,30,02,37,7.20
2010,09,30,02,38,7.20
2010,09,30,02,39,7.20
2010,09,30,02,40,7.20
2010,09,30,02,41,7.20
2010,09,30,02,42,7.20
2010,09,30,02,43,7.20
2010,09,30,02,44,7.20
2010,09,30,02,45,7.20
2010,09,30,02,46,7.20
2010,09,30,02,47,7.20
2010,09,30,02,48,7.20
2010,09,30,02,49,7.20
2010,09,30,02,50,7.20
2010,09,30,02,51,7.20
2010,09,30,02,52,7.20
2010,09,30,02,53,7.20
2010,09,30,02,54,7.20
2010,09,30,02,55,7.20
2010,09,30,02,56,7.20
2010,09,30,02,57,7.20
2010,09,30,02,58,7.20
2010,09,30,02,59,7.20
2010,09,30,03,00,7.20
2010,09,30,03,01,7.20
2010,09,30,03,02,7.20
2010,09,30,03,03,7.20
2010,09,30,03,04,7.20
2010,09,30,03,05,7.20
2010,09,30,03,06,7.20
2010,09,30,03,07,7.20
2010,09,30,03,08,7.20
2010,09,30,03,09,7.20
2010,09,30,03,10,7.20
2010,09,30,03,11,7.10
2010,09,30,03,12,7.10
2010,09,30,03,13,7.10
2010,09,30,03,14,7.10
2010,09,30,03,15,7.10
2010,09,30,03,16,7.10
2010,09,30,03,17,7.10
2010,09,30,03,18,7.10
2010,09,30,03,19,7.10
2010,09,30,03,20,7.10
2010,09,30,03,21,7.00
2010,09,30,03,22,7.00
2010,09,30,03,23,7.00
2010,09,30,03,24,7.00
2010,09,30,03,25,7.00
2010,09,30,03,26,7.00
2010,09,30,03,27,7.00
2010,09,30,03,28,7.00
2010,09,30,03,29,7.00
2010,09,30,03,30,7.00
2010,09,30,03,31,7.00
2010,09,30,03,32,7.00
2010,09,30,03,33,7.00
2010,09,30,03,34,7.00
2010,09,30,03,35,6.90
2010,09,30,03,36,6.90
2010,09,30,03,37,6.90
2010,09,30,03,38,6.90
2010,09,30,03,39,6.90
2010,09,30,03,40,6.90
2010,09,30,03,41,6.80
2010,09,30,03,42,6.80
2010,09,30,03,43,6.80
2010,09,30,03,44,6.90
2010,09,30,03,45,6.90
2010,09,30,03,46,6.90
2010,09,30,03,47,6.90
2010,09,30,03,48,6.90
2010,09,30,03,49,6.90
2010,09,30,03,50,6.90
2010,09,30,03,51,6.90
2010,09,30,03,52,6.80
2010,09,30,03,53,6.80
2010,09,30,03,54,6.80
2010,09,30,03,55,6.80
2010,09,30,03,56,6.80
2010,09,30,03,57,6.80
2010,09,30,03,58,6.80
2010,09,30,03,59,6.80
2010,09,30,04,00,6.80
2010,09,30,04,01,6.80
2010,09,30,04,02,6.70
2010,09,30,04,03,6.70
2010,09,30,04,04,6.70
2010,09,30,04,05,6.70
2010,09,30,04,06,6.70
2010,09,30,04,07,6.70
2010,09,30,04,08,6.70
2010,09,30,04,09,6.70
2010,09,30,04,10,6.70
2010,09,30,04,11,6.70
2010,09,30,04,12,6.70
2010,09,30,04,13,6.70
2010,09,30,04,14,6.60
2010,09,30,04,15,6.60
2010,09,30,04,16,6.60
2010,09,30,04,17,6.60
2010,09,30,04,18,6.60
2010,09,30,04,19,6.60
2010,09,30,04,20,6.50
2010,09,30,04,21,6.50
2010,09,30,04,22,6.50
2010,09,30,04,23,6.50
2010,09,30,04,24,6.40
2010,09,30,04,25,6.40
2010,09,30,04,26,6.40
2010,09,30,04,27,6.40
2010,09,30,04,28,6.40
2010,09,30,04,29,6.40
2010,09,30,04,30,6.30
2010,09,30,04,31,6.30
2010,09,30,04,32,6.30
2010,09,30,04,33,6.30
2010,09,30,04,34,6.30
2010,09,30,04,35,6.30
2010,09,30,04,36,6.30
2010,09,30,04,37,6.30
2010,09,30,04,38,6.30
2010,09,30,04,39,6.30
2010,09,30,04,40,6.30
2010,09,30,04,41,6.30
2010,09,30,04,42,6.30
2010,09,30,04,43,6.30
2010,09,30,04,44,6.30
2010,09,30,04,45,6.30
2010,09,30,04,46,6.40
2010,09,30,04,47,6.40
2010,09,30,04,48,6.40
2010,09,30,04,49,6.40
2010,09,30,04,50,6.40
2010,09,30,04,51,6.50
2010,09,30,04,52,6.50
2010,09,30,04,53,6.50
2010,09,30,04,54,6.60
2010,09,30,04,55,6.60
2010,09,30,04,56,6.50
2010,09,30,04,57,6.50
2010,09,30,04,58,6.40
2010,09,30,04,59,6.40
2010,09,30,05,00,6.30
2010,09,30,05,01,6.30
2010,09,30,05,02,6.30
2010,09,30,05,03,6.30
2010,09,30,05,04,6.30
2010,09,30,05,05,6.30
2010,09,30,05,06,6.30
2010,09,30,05,07,6.30
2010,09,30,05,08,6.30
2010,09,30,05,09,6.30
2010,09,30,05,10,6.30
2010,09,30,05,11,6.30
2010,09,30,05,12,6.30
2010,09,30,05,13,6.40
2010,09,30,05,14,6.40
2010,09,30,05,15,6.40
2010,09,30,05,16,6.40
2010,09,30,05,17,6.50
2010,09,30,05,18,6.50
2010,09,30,05,19,6.50
2010,09,30,05,20,6.50
2010,09,30,05,21,6.50
2010,09,30,05,22,6.50
2010,09,30,05,23,6.50
2010,09,30,05,24,6.50
2010,09,30,05,25,6.40
2010,09,30,05,26,6.40
2010,09,30,05,27,6.30
2010,09,30,05,28,6.30
2010,09,30,05,29,6.20
2010,09,30,05,30,6.20
2010,09,30,05,31,6.20
2010,09,30,05,32,6.20
2010,09,30,05,33,6.20
2010,09,30,05,34,6.20
2010,09,30,05,35,6.10
2010,09,30,05,36,6.10
2010,09,30,05,37,6.10
2010,09,30,05,38,6.10
2010,09,30,05,39,6.10
2010,09,30,05,40,6.10
2010,09,30,05,41,6.10
2010,09,30,05,42,6.00
2010,09,30,05,43,6.00
2010,09,30,05,44,6.10
2010,09,30,05,45,6.10
2010,09,30,05,46,6.10
2010,09,30,05,47,6.10
2010,09,30,05,48,6.10
2010,09,30,05,49,6.10
2010,09,30,05,50,6.10
2010,09,30,05,51,6.10
2010,09,30,05,52,6.10
2010,09,30,05,53,6.00
2010,09,30,05,54,6.00
2010,09,30,05,55,6.00
2010,09,30,05,56,5.90
2010,09,30,05,57,5.90
2010,09,30,05,58,5.90
2010,09,30,05,59,5.80
2010,09,30,06,00,5.80
2010,09,30,06,01,5.80
2010,09,30,06,02,5.80
2010,09,30,06,03,5.80
2010,09,30,06,04,5.80
2010,09,30,06,05,5.80
2010,09,30,06,06,5.80
2010,09,30,06,07,5.80
2010,09,30,06,08,5.80
2010,09,30,06,09,5.80
2010,09,30,06,10,5.80
2010,09,30,06,11,5.90
2010,09,30,06,12,5.90
2010,09,30,06,13,6.00
2010,09,30,06,14,6.10
2010,09,30,06,15,6.20
2010,09,30,06,16,6.20
2010,09,30,06,17,6.30
2010,09,30,06,18,6.30
2010,09,30,06,19,6.40
2010,09,30,06,20,6.40
2010,09,30,06,21,6.40
2010,09,30,06,22,6.40
2010,09,30,06,23,6.40
2010,09,30,06,24,6.30
2010,09,30,06,25,6.20
2010,09,30,06,26,6.20
2010,09,30,06,27,6.20
2010,09,30,06,28,6.20
2010,09,30,06,29,6.20
2010,09,30,06,30,6.10
2010,09,30,06,31,6.10
2010,09,30,06,32,6.10
2010,09,30,06,33,6.10
2010,09,30,06,34,6.10
2010,09,30,06,35,6.10
2010,09,30,06,36,6.10
2010,09,30,06,37,6.10
2010,09,30,06,38,6.10
2010,09,30,06,39,6.20
2010,09,30,06,40,6.30
2010,09,30,06,41,6.30
2010,09,30,06,42,6.40
2010,09,30,06,43,6.40
2010,09,30,06,44,6.30
2010,09,30,06,45,6.30
2010,09,30,06,46,6.20
2010,09,30,06,47,6.20
2010,09,30,06,48,6.20
2010,09,30,06,49,6.10
2010,09,30,06,50,6.10
2010,09,30,06,51,6.10
2010,09,30,06,52,6.00
2010,09,30,06,53,6.00
2010,09,30,06,54,6.00
2010,09,30,06,55,6.00
2010,09,30,06,56,6.10
2010,09,30,06,57,6.10
2010,09,30,06,58,6.10
2010,09,30,06,59,6.10
2010,09,30,07,00,6.20
2010,09,30,07,01,6.10
2010,09,30,07,02,6.10
2010,09,30,07,03,6.10
2010,09,30,07,04,6.00
2010,09,30,07,05,5.90
2010,09,30,07,06,5.90
2010,09,30,07,07,5.90
2010,09,30,07,08,5.80
2010,09,30,07,09,5.80
2010,09,30,07,10,5.80
2010,09,30,07,11,5.80
2010,09,30,07,12,5.70
2010,09,30,07,13,5.70
2010,09,30,07,14,5.70
2010,09,30,07,15,5.70
2010,09,30,07,16,5.70
2010,09,30,07,17,5.70
2010,09,30,07,18,5.70
2010,09,30,07,19,5.70
2010,09,30,07,20,5.80
2010,09,30,07,21,5.80
2010,09,30,07,22,5.80
2010,09,30,07,23,5.80
2010,09,30,07,24,5.80
2010,09,30,07,25,5.80
2010,09,30,07,26,5.90
2010,09,30,07,27,5.90
2010,09,30,07,28,5.90
2010,09,30,07,29,5.90
2010,09,30,07,30,6.00
2010,09,30,07,31,6.00
2010,09,30,07,32,6.10
2010,09,30,07,33,6.10
2010,09,30,07,34,6.20
2010,09,30,07,35,6.30
2010,09,30,07,36,6.30
2010,09,30,07,37,6.40
2010,09,30,07,38,6.40
2010,09,30,07,39,6.40
2010,09,30,07,40,6.40
2010,09,30,07,41,6.40
2010,09,30,07,42,6.40
2010,09,30,07,43,6.40
2010,09,30,07,44,6.40
2010,09,30,07,45,6.30
2010,09,30,07,46,6.30
2010,09,30,07,47,6.30
2010,09,30,07,48,6.20
2010,09,30,07,49,6.10
2010,09,30,07,50,6.00
2010,09,30,07,51,6.00
2010,09,30,07,52,5.90
2010,09,30,07,53,5.90
2010,09,30,07,54,5.90
2010,09,30,07,55,5.90
2010,09,30,07,56,6.00
2010,09,30,07,57,6.00
2010,09,30,07,58,6.00
2010,09,30,07,59,6.10
2010,09,30,08,00,6.10
2010,09,30,08,01,6.20
2010,09,30,08,02,6.20
2010,09,30,08,03,6.30
2010,09,30,08,04,6.40
2010,09,30,08,05,6.40
2010,09,30,08,06,6.40
2010,09,30,08,07,6.40
2010,09,30,08,08,6.40
2010,09,30,08,09,6.50
2010,09,30,08,10,6.60
2010,09,30,08,11,6.70
2010,09,30,08,12,6.80
2010,09,30,08,13,6.90
2010,09,30,08,14,7.00
2010,09,30,08,15,7.10
2010,09,30,08,16,7.20
2010,09,30,08,17,7.30
2010,09,30,08,18,7.40
2010,09,30,08,19,7.50
2010,09,30,08,20,7.60
2010,09,30,08,21,7.70
2010,09,30,08,22,7.80
2010,09,30,08,23,7.90
2010,09,30,08,24,8.10
2010,09,30,08,25,8.20
2010,09,30,08,26,8.30
2010,09,30,08,27,8.40
2010,09,30,08,28,8.50
2010,09,30,08,29,8.60
2010,09,30,08,30,8.70
2010,09,30,08,31,8.80
2010,09,30,08,32,8.90
2010,09,30,08,33,8.90
2010,09,30,08,34,9.00
2010,09,30,08,35,9.10
2010,09,30,08,36,9.20
2010,09,30,08,37,9.20
2010,09,30,08,38,9.40
2010,09,30,08,39,9.50
2010,09,30,08,40,9.60
2010,09,30,08,41,9.70
2010,09,30,08,42,9.80
2010,09,30,08,43,9.80
2010,09,30,08,44,9.90
2010,09,30,08,45,9.90
2010,09,30,08,46,9.90
2010,09,30,08,47,10.00
2010,09,30,08,48,10.10
2010,09,30,08,49,10.10
2010,09,30,08,50,10.20
2010,09,30,08,51,10.20
2010,09,30,08,52,10.30
2010,09,30,08,53,10.40
2010,09,30,08,54,10.50
2010,09,30,08,55,10.60
2010,09,30,08,56,10.70
2010,09,30,08,57,10.80
2010,09,30,08,58,10.90
2010,09,30,08,59,11.00
2010,09,30,09,00,11.20
2010,09,30,09,01,11.30
2010,09,30,09,02,11.40
2010,09,30,09,03,11.50
2010,09,30,09,04,11.70
2010,09,30,09,05,11.80
2010,09,30,09,06,11.90
2010,09,30,09,07,12.10
2010,09,30,09,08,12.30
2010,09,30,09,09,12.40
2010,09,30,09,10,12.50
2010,09,30,09,11,12.70
2010,09,30,09,12,12.80
2010,09,30,09,13,12.90
2010,09,30,09,14,13.10
2010,09,30,09,15,13.20
2010,09,30,09,16,13.30
2010,09,30,09,17,13.40
2010,09,30,09,18,13.50
2010,09,30,09,19,13.60
2010,09,30,09,20,13.70
2010,09,30,09,21,13.80
2010,09,30,09,22,13.90
2010,09,30,09,23,14.00
2010,09,30,09,24,14.10
2010,09,30,09,25,14.20
2010,09,30,09,26,14.30
2010,09,30,09,27,14.30
2010,09,30,09,28,14.40
2010,09,30,09,29,14.50
2010,09,30,09,30,14.60
2010,09,30,09,31,14.60
2010,09,30,09,32,14.70
2010,09,30,09,33,14.70
2010,09,30,09,34,14.80
2010,09,30,09,35,14.80
2010,09,30,09,36,14.80
2010,09,30,09,37,14.80
2010,09,30,09,38,14.90
2010,09,30,09,39,14.90
2010,09,30,09,40,14.90
2010,09,30,09,41,15.00
2010,09,30,09,42,15.00
2010,09,30,09,43,15.00
2010,09,30,09,44,15.00
2010,09,30,09,45,15.00
2010,09,30,09,46,15.00
2010,09,30,09,47,15.00
2010,09,30,09,48,15.00
2010,09,30,09,49,15.00
2010,09,30,09,50,15.00
2010,09,30,09,51,15.00
2010,09,30,09,52,15.00
2010,09,30,09,53,15.00
2010,09,30,09,54,15.00
2010,09,30,09,55,15.00
2010,09,30,09,56,15.10
2010,09,30,09,57,15.10
2010,09,30,09,58,15.10
2010,09,30,09,59,15.20
2010,09,30,10,00,15.20
2010,09,30,10,01,15.30
2010,09,30,10,02,15.30
2010,09,30,10,03,15.40
2010,09,30,10,04,15.40
2010,09,30,10,05,15.50
2010,09,30,10,06,15.60
2010,09,30,10,07,15.60
2010,09,30,10,08,15.60
2010,09,30,10,09,15.60
2010,09,30,10,10,15.70
2010,09,30,10,11,15.80
2010,09,30,10,12,15.80
2010,09,30,10,13,15.80
2010,09,30,10,14,15.90
2010,09,30,10,15,16.00
2010,09,30,10,16,16.00
2010,09,30,10,17,16.00
2010,09,30,10,18,16.00
2010,09,30,10,19,15.90
2010,09,30,10,20,15.90
2010,09,30,10,21,15.80
2010,09,30,10,22,15.80
2010,09,30,10,23,15.80
2010,09,30,10,24,15.80
2010,09,30,10,25,15.90
2010,09,30,10,26,15.90
2010,09,30,10,27,15.90
2010,09,30,10,28,16.00
2010,09,30,10,29,16.00
2010,09,30,10,30,16.10
2010,09,30,10,31,16.10
2010,09,30,10,32,16.10
2010,09,30,10,33,16.10
2010,09,30,10,34,16.10
2010,09,30,10,35,16.20
2010,09,30,10,36,16.20
2010,09,30,10,37,16.20
2010,09,30,10,38,16.20
2010,09,30,10,39,16.30
2010,09,30,10,40,16.30
2010,09,30,10,41,16.40
2010,09,30,10,42,16.50
2010,09,30,10,43,16.60
2010,09,30,10,44,16.70
2010,09,30,10,45,16.70
2010,09,30,10,46,16.80
2010,09,30,10,47,16.90
2010,09,30,10,48,16.90
2010,09,30,10,49,17.00
2010,09,30,10,50,17.10
2010,09,30,10,51,17.10
2010,09,30,10,52,17.10
2010,09,30,10,53,17.10
2010,09,30,10,54,17.10
2010,09,30,10,55,17.10
2010,09,30,10,56,17.20
2010,09,30,10,57,17.20
2010,09,30,10,58,17.20
2010,09,30,10,59,17.20
2010,09,30,11,00,17.30
2010,09,30,11,01,17.30
2010,09,30,11,02,17.30
2010,09,30,11,03,17.20
2010,09,30,11,04,17.20
2010,09,30,11,05,17.20
2010,09,30,11,06,17.20
2010,09,30,11,07,17.20
2010,09,30,11,08,17.20
2010,09,30,11,09,17.30
2010,09,30,11,10,17.30
2010,09,30,11,11,17.40
2010,09,30,11,12,17.40
2010,09,30,11,13,17.40
2010,09,30,11,14,17.30
2010,09,30,11,15,17.30
2010,09,30,11,16,17.20
2010,09,30,11,17,17.20
2010,09,30,11,18,17.20
2010,09,30,11,19,17.20
2010,09,30,11,20,17.30
2010,09,30,11,21,17.30
2010,09,30,11,22,17.40
2010,09,30,11,23,17.40
2010,09,30,11,24,17.40
2010,09,30,11,25,17.30
2010,09,30,11,26,17.30
2010,09,30,11,27,17.20
2010,09,30,11,28,17.20
2010,09,30,11,29,17.10
2010,09,30,11,30,17.10
2010,09,30,11,31,17.10
2010,09,30,11,32,17.10
2010,09,30,11,33,17.20
2010,09,30,11,34,17.20
2010,09,30,11,35,17.30
2010,09,30,11,36,17.30
2010,09,30,11,37,17.30
2010,09,30,11,38,17.30
2010,09,30,11,39,17.30
2010,09,30,11,40,17.30
2010,09,30,11,41,17.40
2010,09,30,11,42,17.40
2010,09,30,11,43,17.40
2010,09,30,11,44,17.40
2010,09,30,11,45,17.40
2010,09,30,11,46,17.40
2010,09,30,11,47,17.40
2010,09,30,11,48,17.40
2010,09,30,11,49,17.40
2010,09,30,11,50,17.40
2010,09,30,11,51,17.30
2010,09,30,11,52,17.30
2010,09,30,11,53,17.40
2010,09,30,11,54,17.40
2010,09,30,11,55,17.40
2010,09,30,11,56,17.50
2010,09,30,11,57,17.50
2010,09,30,11,58,17.50
2010,09,30,11,59,17.50
2010,09,30,12,00,17.40
2010,09,30,12,01,17.40
2010,09,30,12,02,17.50
2010,09,30,12,03,17.50
2010,09,30,12,04,17.50
2010,09,30,12,05,17.50
2010,09,30,12,06,17.50
2010,09,30,12,07,17.50
2010,09,30,12,08,17.50
2010,09,30,12,09,17.60
2010,09,30,12,10,17.70
2010,09,30,12,11,17.70
2010,09,30,12,12,17.80
2010,09,30,12,13,17.80
2010,09,30,12,14,17.80
2010,09,30,12,15,17.80
2010,09,30,12,16,17.70
2010,09,30,12,17,17.70
2010,09,30,12,18,17.70
2010,09,30,12,19,17.80
2010,09,30,12,20,17.90
2010,09,30,12,21,18.00
2010,09,30,12,22,18.00
2010,09,30,12,23,18.10
2010,09,30,12,24,18.10
2010,09,30,12,25,18.20
2010,09,30,12,26,18.30
2010,09,30,12,27,18.40
2010,09,30,12,28,18.40
2010,09,30,12,29,18.50
2010,09,30,12,30,18.60
2010,09,30,12,31,18.60
2010,09,30,12,32,18.70
2010,09,30,12,33,18.70
2010,09,30,12,34,18.80
2010,09,30,12,35,18.80
2010,09,30,12,36,18.90
2010,09,30,12,37,18.90
2010,09,30,12,38,18.90
2010,09,30,12,39,18.90
2010,09,30,12,40,18.90
2010,09,30,12,41,18.90
2010,09,30,12,42,18.90
2010,09,30,12,43,18.90
2010,09,30,12,44,18.90
2010,09,30,12,45,18.90
2010,09,30,12,46,19.00
2010,09,30,12,47,19.00
2010,09,30,12,48,19.10
2010,09,30,12,49,19.10
2010,09,30,12,50,19.20
2010,09,30,12,51,19.30
2010,09,30,12,52,19.30
2010,09,30,12,53,19.30
2010,09,30,12,54,19.30
2010,09,30,12,55,19.30
2010,09,30,12,56,19.30
2010,09,30,12,57,19.30
2010,09,30,12,58,19.30
2010,09,30,12,59,19.40
2010,09,30,13,00,19.50
2010,09,30,13,01,19.50
2010,09,30,13,02,19.60
2010,09,30,13,03,19.60
2010,09,30,13,04,19.70
2010,09,30,13,05,19.70
2010,09,30,13,06,19.80
2010,09,30,13,07,19.80
2010,09,30,13,08,19.80
2010,09,30,13,09,19.80
2010,09,30,13,10,19.80
2010,09,30,13,11,19.80
2010,09,30,13,12,19.80
2010,09,30,13,13,19.90
2010,09,30,13,14,19.80
2010,09,30,13,15,19.80
2010,09,30,13,16,19.80
2010,09,30,13,17,19.80
2010,09,30,13,18,19.80
2010,09,30,13,19,19.80
2010,09,30,13,20,19.80
2010,09,30,13,21,19.80
2010,09,30,13,22,19.80
2010,09,30,13,23,19.80
2010,09,30,13,24,19.80
2010,09,30,13,25,19.80
2010,09,30,13,26,19.80
2010,09,30,13,27,19.80
2010,09,30,13,28,19.90
2010,09,30,13,29,19.90
2010,09,30,13,30,20.00
2010,09,30,13,31,20.10
2010,09,30,13,32,20.10
2010,09,30,13,33,20.10
2010,09,30,13,34,20.10
2010,09,30,13,35,20.10
2010,09,30,13,36,20.10
2010,09,30,13,37,20.10
2010,09,30,13,38,20.10
2010,09,30,13,39,20.10
2010,09,30,13,40,20.10
2010,09,30,13,41,20.10
2010,09,30,13,42,20.10
2010,09,30,13,43,20.10
2010,09,30,13,44,20.10
2010,09,30,13,45,20.00
2010,09,30,13,46,20.00
2010,09,30,13,47,19.90
2010,09,30,13,48,19.80
2010,09,30,13,49,19.90
2010,09,30,13,50,19.90
2010,09,30,13,51,19.80
2010,09,30,13,52,19.80
2010,09,30,13,53,19.70
2010,09,30,13,54,19.70
2010,09,30,13,55,19.70
2010,09,30,13,56,19.70
2010,09,30,13,57,19.70
2010,09,30,13,58,19.70
2010,09,30,13,59,19.70
2010,09,30,14,00,19.70
2010,09,30,14,01,19.60
2010,09,30,14,02,19.60
2010,09,30,14,03,19.60
2010,09,30,14,04,19.60
2010,09,30,14,05,19.60
2010,09,30,14,06,19.70
2010,09,30,14,07,19.80
2010,09,30,14,08,19.80
2010,09,30,14,09,19.80
2010,09,30,14,10,19.80
2010,09,30,14,11,19.80
2010,09,30,14,12,19.80
2010,09,30,14,13,19.90
2010,09,30,14,14,20.00
2010,09,30,14,15,20.00
2010,09,30,14,16,20.10
2010,09,30,14,17,20.10
2010,09,30,14,18,20.20
2010,09,30,14,19,20.20
2010,09,30,14,20,20.30
2010,09,30,14,21,20.30
2010,09,30,14,22,20.30
2010,09,30,14,23,20.30
2010,09,30,14,24,20.30
2010,09,30,14,25,20.40
2010,09,30,14,26,20.40
2010,09,30,14,27,20.30
2010,09,30,14,28,20.10
2010,09,30,14,29,20.10
2010,09,30,14,30,19.90
2010,09,30,14,31,19.80
2010,09,30,14,32,19.80
2010,09,30,14,33,19.80
2010,09,30,14,34,19.90
2010,09,30,14,35,19.90
2010,09,30,14,36,19.90
2010,09,30,14,37,19.80
2010,09,30,14,38,19.80
2010,09,30,14,39,19.80
2010,09,30,14,40,19.80
2010,09,30,14,41,19.80
2010,09,30,14,42,19.80
2010,09,30,14,43,19.80
2010,09,30,14,44,19.80
2010,09,30,14,45,19.90
2010,09,30,14,46,19.90
2010,09,30,14,47,20.00
2010,09,30,14,48,20.00
2010,09,30,14,49,20.10
2010,09,30,14,50,20.10
2010,09,30,14,51,20.10
2010,09,30,14,52,20.10
2010,09,30,14,53,20.10
2010,09,30,14,54,20.10
2010,09,30,14,55,20.00
2010,09,30,14,56,20.00
2010,09,30,14,57,20.00
2010,09,30,14,58,20.00
2010,09,30,14,59,20.00
2010,09,30,15,00,20.10
2010,09,30,15,01,20.00
2010,09,30,15,02,20.00
2010,09,30,15,03,20.10
2010,09,30,15,04,20.10
2010,09,30,15,05,20.10
2010,09,30,15,06,20.10
2010,09,30,15,07,20.20
2010,09,30,15,08,20.20
2010,09,30,15,09,20.20
2010,09,30,15,10,20.20
2010,09,30,15,11,20.30
2010,09,30,15,12,20.30
2010,09,30,15,13,20.30
2010,09,30,15,14,20.40
2010,09,30,15,15,20.40
2010,09,30,15,16,20.40
2010,09,30,15,17,20.50
2010,09,30,15,18,20.50
2010,09,30,15,19,20.50
2010,09,30,15,20,20.50
2010,09,30,15,21,20.50
2010,09,30,15,22,20.60
2010,09,30,15,23,20.60
2010,09,30,15,24,20.70
2010,09,30,15,25,20.70
2010,09,30,15,26,20.70
2010,09,30,15,27,20.60
2010,09,30,15,28,20.60
2010,09,30,15,29,20.60
2010,09,30,15,30,20.60
2010,09,30,15,31,20.60
2010,09,30,15,32,20.60
2010,09,30,15,33,20.60
2010,09,30,15,34,20.60
2010,09,30,15,35,20.50
2010,09,30,15,36,20.40
2010,09,30,15,37,20.40
2010,09,30,15,38,20.40
2010,09,30,15,39,20.40
2010,09,30,15,40,20.40
2010,09,30,15,41,20.40
2010,09,30,15,42,20.40
2010,09,30,15,43,20.50
2010,09,30,15,44,20.50
2010,09,30,15,45,20.60
2010,09,30,15,46,20.60
2010,09,30,15,47,20.60
2010,09,30,15,48,20.60
2010,09,30,15,49,20.60
2010,09,30,15,50,20.60
2010,09,30,15,51,20.60
2010,09,30,15,52,20.60
2010,09,30,15,53,20.60
2010,09,30,15,54,20.60
2010,09,30,15,55,20.60
2010,09,30,15,56,20.60
2010,09,30,15,57,20.60
2010,09,30,15,58,20.60
2010,09,30,15,59,20.60
2010,09,30,16,00,20.60
2010,09,30,16,01,20.60
2010,09,30,16,02,20.60
2010,09,30,16,03,20.60
2010,09,30,16,04,20.60
2010,09,30,16,05,20.60
2010,09,30,16,06,20.60
2010,09,30,16,07,20.60
2010,09,30,16,08,20.60
2010,09,30,16,09,20.60
2010,09,30,16,10,20.60
2010,09,30,16,11,20.60
2010,09,30,16,12,20.60
2010,09,30,16,13,20.60
2010,09,30,16,14,20.60
2010,09,30,16,15,20.70
2010,09,30,16,16,20.70
2010,09,30,16,17,20.60
2010,09,30,16,18,20.60
2010,09,30,16,19,20.60
2010,09,30,16,20,20.60
2010,09,30,16,21,20.50
2010,09,30,16,22,20.40
2010,09,30,16,23,20.40
2010,09,30,16,24,20.40
2010,09,30,16,25,20.30
2010,09,30,16,26,20.30
2010,09,30,16,27,20.20
2010,09,30,16,28,20.20
2010,09,30,16,29,20.10
2010,09,30,16,30,20.10
2010,09,30,16,31,20.10
2010,09,30,16,32,20.10
2010,09,30,16,33,20.10
2010,09,30,16,34,20.10
2010,09,30,16,35,20.20
2010,09,30,16,36,20.20
2010,09,30,16,37,20.20
2010,09,30,16,38,20.20
2010,09,30,16,39,20.20
2010,09,30,16,40,20.20
2010,09,30,16,41,20.20
2010,09,30,16,42,20.20
2010,09,30,16,43,20.20
2010,09,30,16,44,20.20
2010,09,30,16,45,20.20
2010,09,30,16,46,20.20
2010,09,30,16,47,20.30
2010,09,30,16,48,20.20
2010,09,30,16,49,20.20
2010,09,30,16,50,20.20
2010,09,30,16,51,20.10
2010,09,30,16,52,20.10
2010,09,30,16,53,20.10
2010,09,30,16,54,20.10
2010,09,30,16,55,20.00
2010,09,30,16,56,20.00
2010,09,30,16,57,20.00
2010,09,30,16,58,20.00
2010,09,30,16,59,20.00
2010,09,30,17,00,20.00
2010,09,30,17,01,20.00
2010,09,30,17,02,20.00
2010,09,30,17,03,20.00
2010,09,30,17,04,19.90
2010,09,30,17,05,19.90
2010,09,30,17,06,19.90
2010,09,30,17,07,19.80
2010,09,30,17,08,19.80
2010,09,30,17,09,19.70
2010,09,30,17,10,19.70
2010,09,30,17,11,19.70
2010,09,30,17,12,19.70
2010,09,30,17,13,19.70
2010,09,30,17,14,19.70
2010,09,30,17,15,19.70
2010,09,30,17,16,19.70
2010,09,30,17,17,19.70
2010,09,30,17,18,19.60
2010,09,30,17,19,19.60
2010,09,30,17,20,19.50
2010,09,30,17,21,19.50
2010,09,30,17,22,19.50
2010,09,30,17,23,19.40
2010,09,30,17,24,19.40
2010,09,30,17,25,19.40
2010,09,30,17,26,19.40
2010,09,30,17,27,19.30
2010,09,30,17,28,19.30
2010,09,30,17,29,19.30
2010,09,30,17,30,19.20
2010,09,30,17,31,19.20
2010,09,30,17,32,19.10
2010,09,30,17,33,19.10
2010,09,30,17,34,19.10
2010,09,30,17,35,19.00
2010,09,30,17,36,19.00
2010,09,30,17,37,19.00
2010,09,30,17,38,19.00
2010,09,30,17,39,18.90
2010,09,30,17,40,18.90
2010,09,30,17,41,18.90
2010,09,30,17,42,18.90